Flag for Spain Weather past 2 weeks in Bilbao, Spain

57 °F

Partly cloudy.

Feels Like: 57 °F
Forecast: 56 / 67 °F
Wind: 1 mph from North

Location: Bilbao / Sondica

Current Time: Oct 7, 2015 at 9:24:26 AM

Latest Report: Oct 7, 2015 at 9:00 AM

Visibility: N/A

Pressure: 30.15 "Hg

Humidity: 94%

Dew point: 55 °F

Location of BilbaoLocation

Historic Weather in Bilbao — Graph


Bilbao temperature yesterday

Maximum temperature yesterday: 75 °F (at 12:00 AM)
Minimum temperature yesterday: 61 °F (at 6:30 PM)
Average temperature yesterday: 67 °F

Past Weeks' High & Low Weather Summary

High82 °F (Oct 4, 5:30 PM)100% (Sep 22, 10:00 PM)30.27 "Hg (Sep 22, 10:00 PM)
Low48 °F (Oct 3, 7:00 AM)35% (Oct 5, 6:30 PM)29.68 "Hg (Oct 6, 5:00 AM)
Average65 °F77%30.06 "Hg
* Reported Sep 22 8:00 AM — Oct 7 8:00 AM, Bilbao, Weather by CustomWeather, © 2015

Note: Actual official high and low records may vary slightly from our data, if they occured in-between our weather recording intervals... More about our weather records


Bilbao weather history for previous 24 hours

Time TempWeatherWind HumidityBarometerVisibility
8:00 AM
Wed, Oct 7
55 °FPassing clouds.2 mph100%30.12 "HgN/A
7:30 AM57 °FPassing clouds.2 mph94%30.12 "HgN/A
7:00 AM57 °FPartly cloudy.2 mph94%30.12 "HgN/A
6:30 AM57 °FPartly cloudy.3 mph94%30.12 "HgN/A
6:00 AM57 °FPartly cloudy.3 mph94%30.12 "HgN/A
5:30 AM57 °FPartly cloudy.2 mph94%30.12 "HgN/A
5:00 AM59 °FPartly cloudy.1 mph88%30.12 "HgN/A
11:30 PM
Tue, Oct 6
61 °FPassing clouds.6 mph77%30.09 "HgN/A
11:00 PM61 °FPassing clouds.2 mph77%30.07 "HgN/A
10:30 PM61 °FPassing clouds.7 mph83%30.07 "HgN/A
10:00 PM61 °FPassing clouds.7 mph83%30.07 "HgN/A
9:30 PM61 °FPassing clouds.9 mph83%30.07 "HgN/A
9:00 PM61 °FPassing clouds.9 mph83%30.04 "HgN/A
8:30 PM61 °FPartly sunny.8 mph83%30.04 "HgN/A
8:00 PM61 °FPartly sunny.10 mph83%30.01 "HgN/A
7:30 PM63 °FPartly sunny.9 mph77%30.01 "HgN/A
7:00 PM63 °FBroken clouds.7 mph83%29.98 "HgN/A
6:30 PM61 °FBroken clouds.13 mph88%29.98 "HgN/A
6:00 PM63 °FSprinkles. Broken clouds.10 mph88%29.95 "HgN/A
5:30 PM63 °FSprinkles. Broken clouds.13 mph88%29.95 "HgN/A
5:00 PM63 °FSprinkles. Broken clouds.15 mph88%29.95 "HgN/A
4:30 PM64 °FBroken clouds.8 mph83%29.92 "HgN/A
4:00 PM64 °FSprinkles. Broken clouds.12 mph83%29.92 "HgN/A
3:30 PM64 °FSprinkles. Broken clouds.7 mph88%29.92 "Hg4 mi
3:00 PM63 °FSprinkles. Broken clouds.7 mph94%29.89 "Hg4 mi
2:30 PM63 °FSprinkles. Broken clouds.18 mph94%29.89 "Hg4 mi
2:00 PM63 °FSprinkles. Broken clouds.21 mph94%29.89 "Hg4 mi
1:30 PM63 °FThunderstorms. Broken clouds.17 mph100%29.86 "Hg3 mi
1:00 PM70 °FThunderstorms. Scattered clouds.12 mph69%29.83 "HgN/A
12:30 PM73 °FScattered clouds.7 mph57%29.83 "HgN/A
12:00 PM73 °FPassing clouds.9 mph57%29.80 "HgN/A
11:30 AM73 °FPassing clouds.10 mph53%29.80 "HgN/A
11:00 AM75 °FPassing clouds.14 mph50%29.80 "HgN/A
10:30 AM73 °FPassing clouds.20 mph50%29.77 "HgN/A
10:00 AM73 °FPassing clouds.20 mph50%29.77 "HgN/A
9:30 AM72 °FPassing clouds.17 mph53%29.74 "HgN/A
9:00 AM72 °FPassing clouds.17 mph53%29.74 "HgN/A
Weather by CustomWeather, © 2015

See weather overviewHow to use our weather pages